Location: ????????
(55.0559°N, 39.1270°E)
Time: 18:31:53
(UTC+00:00)

NOSS 3-2 (C) - Pass Details

Date: 15 November 2025
Orbit: 674 x 1535 km, 63.4° (Epoch: 13 November)

Event Time Altitude Azimuth Distance (km) Brightness Sun altitude
Exits shadow 02:59:05 18° 311° (NW) 2,307 5.0 -16.4°
Maximum altitude 03:04:19 67° 32° (NNE) 1,263 4.1 -15.6°
Drops below altitude 10° 03:12:33 10° 114° (ESE) 3,410 7.7 -14.5°
Sets 03:15:43 0° 117° (ESE) 4,483 8.6 -14.0°
